TimeCDT,TemperatureF,Dew PointF,Humidity,Sea Level PressureIn,VisibilityMPH,Wind Direction,Wind SpeedMPH,Gust SpeedMPH,PrecipitationIn,Events,Conditions,WindDirDegrees,DateUTC
12:15 AM,71.6,66.9,85,30.00,10.0,Calm,Calm,-,N/A,,Clear,0,2012-09-01 05:15:00
12:35 AM,68.0,65.3,91,30.00,10.0,NW,5.8,-,N/A,,Clear,320,2012-09-01 05:35:00
12:55 AM,67.5,64.8,91,30.00,10.0,NNW,5.8,-,N/A,,Clear,330,2012-09-01 05:55:00
1:15 AM,67.3,64.8,92,30.00,10.0,NNW,3.5,-,N/A,,Clear,340,2012-09-01 06:15:00
1:35 AM,67.3,65.3,93,30.00,10.0,NNW,3.5,-,N/A,,Clear,340,2012-09-01 06:35:00
1:55 AM,67.1,65.3,94,30.00,10.0,North,5.8,-,N/A,,Clear,350,2012-09-01 06:55:00
2:15 AM,67.1,65.1,93,30.00,10.0,North,3.5,-,N/A,,Clear,350,2012-09-01 07:15:00
2:35 AM,67.6,65.5,93,29.99,10.0,North,5.8,-,N/A,,Clear,360,2012-09-01 07:35:00
2:55 AM,66.7,64.4,92,29.99,10.0,NNW,3.5,-,N/A,,Clear,330,2012-09-01 07:55:00
3:15 AM,66.6,64.4,93,29.99,10.0,North,3.5,-,N/A,,Clear,350,2012-09-01 08:15:00
3:35 AM,66.7,64.8,93,30.00,10.0,NNW,3.5,-,N/A,,Clear,330,2012-09-01 08:35:00
3:55 AM,66.6,64.6,93,30.00,10.0,Calm,Calm,-,N/A,,Clear,0,2012-09-01 08:55:00
4:15 AM,66.6,64.4,93,30.00,10.0,Calm,Calm,-,N/A,,Clear,0,2012-09-01 09:15:00
4:35 AM,66.6,64.6,93,30.00,10.0,North,3.5,-,N/A,,Clear,10,2012-09-01 09:35:00
4:55 AM,64.8,63.0,94,30.00,10.0,Calm,Calm,-,N/A,,Clear,0,2012-09-01 09:55:00
5:15 AM,65.3,63.3,93,30.01,10.0,Calm,Calm,-,N/A,,Clear,0,2012-09-01 10:15:00
5:35 AM,64.9,62.8,93,30.01,10.0,Calm,Calm,-,N/A,,Clear,0,2012-09-01 10:35:00
5:55 AM,64.4,62.4,93,30.01,10.0,NW,3.5,-,N/A,,Clear,320,2012-09-01 10:55:00
6:15 AM,65.1,63.5,94,30.01,7.0,Calm,Calm,-,N/A,,Clear,0,2012-09-01 11:15:00
6:35 AM,64.6,62.8,94,30.02,10.0,Calm,Calm,-,N/A,,Clear,0,2012-09-01 11:35:00
6:55 AM,65.3,63.5,94,30.02,7.0,Calm,Calm,-,N/A,,Clear,0,2012-09-01 11:55:00
7:15 AM,64.8,63.0,94,30.03,7.0,Calm,Calm,-,N/A,,Clear,0,2012-09-01 12:15:00
7:35 AM,65.7,64.0,94,30.03,7.0,Calm,Calm,-,N/A,,Clear,0,2012-09-01 12:35:00
7:55 AM,68.0,66.2,94,30.03,10.0,Calm,Calm,-,N/A,,Clear,0,2012-09-01 12:55:00
8:15 AM,68.9,66.4,92,30.03,7.0,Calm,Calm,-,N/A,,Clear,0,2012-09-01 13:15:00
8:35 AM,72.5,68.4,87,30.03,10.0,North,5.8,-,N/A,,Clear,350,2012-09-01 13:35:00
8:55 AM,74.8,68.4,80,30.04,10.0,North,9.2,-,N/A,,Clear,360,2012-09-01 13:55:00
9:15 AM,76.6,68.2,75,30.04,10.0,North,9.2,-,N/A,,Clear,360,2012-09-01 14:15:00
9:35 AM,78.8,68.2,70,30.04,10.0,North,10.4,-,N/A,,Clear,10,2012-09-01 14:35:00
9:55 AM,80.6,68.0,65,30.04,10.0,North,10.4,-,N/A,,Clear,10,2012-09-01 14:55:00
10:15 AM,81.5,67.8,63,30.05,10.0,North,8.1,-,N/A,,Clear,360,2012-09-01 15:15:00
10:35 AM,82.6,66.6,58,30.04,10.0,NE,6.9,-,N/A,,Clear,40,2012-09-01 15:35:00
10:55 AM,84.2,66.2,55,30.05,10.0,North,9.2,-,N/A,,Clear,10,2012-09-01 15:55:00
11:15 AM,84.6,66.4,54,30.04,10.0,NE,9.2,-,N/A,,Clear,40,2012-09-01 16:15:00
11:35 AM,85.6,66.2,52,30.04,10.0,North,6.9,-,N/A,,Clear,10,2012-09-01 16:35:00
11:55 AM,86.7,65.7,49,30.03,10.0,ENE,5.8,-,N/A,,Clear,70,2012-09-01 16:55:00
12:15 PM,87.6,65.7,48,30.03,10.0,NNE,9.2,-,N/A,,Clear,20,2012-09-01 17:15:00
12:35 PM,88.7,64.9,45,30.02,10.0,NE,10.4,-,N/A,,Clear,40,2012-09-01 17:35:00
12:55 PM,89.4,64.8,44,30.02,10.0,North,6.9,-,N/A,,Clear,360,2012-09-01 17:55:00
1:15 PM,90.0,64.2,42,30.01,10.0,NW,4.6,10.4,N/A,,Clear,320,2012-09-01 18:15:00
1:35 PM,90.7,63.5,40,30.00,10.0,NNE,3.5,-,N/A,,Scattered Clouds,30,2012-09-01 18:35:00
1:55 PM,91.4,62.6,38,30.00,10.0,NE,4.6,-,N/A,,Scattered Clouds,50,2012-09-01 18:55:00
2:15 PM,91.2,63.0,39,29.99,10.0,NE,5.8,-,N/A,,Clear,50,2012-09-01 19:15:00
2:35 PM,92.3,61.7,36,29.99,10.0,ENE,6.9,-,N/A,,Scattered Clouds,70,2012-09-01 19:35:00
2:55 PM,91.8,62.4,37,29.98,10.0,ENE,8.1,-,N/A,,Scattered Clouds,60,2012-09-01 19:55:00
3:15 PM,93.4,61.5,34,29.97,10.0,North,4.6,18.4,N/A,,Scattered Clouds,350,2012-09-01 20:15:00
3:35 PM,93.2,61.2,34,29.97,10.0,NE,9.2,-,N/A,,Scattered Clouds,40,2012-09-01 20:35:00
3:55 PM,92.3,61.5,36,29.97,10.0,NNE,6.9,-,N/A,,Scattered Clouds,20,2012-09-01 20:55:00
4:15 PM,93.4,60.6,33,29.96,10.0,North,6.9,-,N/A,,Clear,350,2012-09-01 21:15:00
4:35 PM,93.7,60.3,33,29.95,10.0,NNW,5.8,-,N/A,,Scattered Clouds,340,2012-09-01 21:35:00
4:55 PM,93.6,59.9,32,29.95,10.0,North,4.6,-,N/A,,Scattered Clouds,10,2012-09-01 21:55:00
5:15 PM,93.2,59.7,33,29.95,10.0,ENE,4.6,-,N/A,,Scattered Clouds,70,2012-09-01 22:15:00
5:35 PM,93.2,60.3,33,29.95,10.0,NNE,9.2,-,N/A,,Scattered Clouds,30,2012-09-01 22:35:00
5:55 PM,93.2,59.9,33,29.95,10.0,ENE,8.1,-,N/A,,Clear,70,2012-09-01 22:55:00
6:15 PM,92.7,59.9,33,29.95,10.0,East,8.1,-,N/A,,Clear,80,2012-09-01 23:15:00
6:35 PM,91.9,59.9,34,29.95,10.0,ENE,6.9,-,N/A,,Clear,60,2012-09-01 23:35:00
6:55 PM,91.0,60.8,36,29.95,10.0,ENE,9.2,-,N/A,,Clear,70,2012-09-01 23:55:00
7:15 PM,89.6,61.5,39,29.94,10.0,ENE,8.1,-,N/A,,Clear,70,2012-09-02 00:15:00
7:35 PM,87.8,62.2,42,29.94,10.0,East,5.8,-,N/A,,Clear,100,2012-09-02 00:35:00
7:55 PM,85.3,62.6,46,29.95,10.0,ESE,5.8,-,N/A,,Clear,110,2012-09-02 00:55:00
8:15 PM,83.7,62.8,49,29.95,10.0,ESE,4.6,-,N/A,,Clear,110,2012-09-02 01:15:00
8:35 PM,82.0,62.8,52,29.95,10.0,ESE,3.5,-,N/A,,Clear,110,2012-09-02 01:35:00
8:55 PM,80.8,63.1,55,29.96,10.0,East,3.5,-,N/A,,Clear,100,2012-09-02 01:55:00
9:15 PM,79.7,63.5,58,29.97,10.0,ESE,3.5,-,N/A,,Clear,120,2012-09-02 02:15:00
9:35 PM,78.3,64.4,62,29.97,10.0,ESE,3.5,-,N/A,,Clear,110,2012-09-02 02:35:00
9:55 PM,77.5,64.9,65,29.97,10.0,ESE,3.5,-,N/A,,Clear,110,2012-09-02 02:55:00
10:15 PM,77.0,65.3,67,29.98,10.0,Calm,Calm,-,N/A,,Clear,0,2012-09-02 03:15:00
10:35 PM,76.5,65.7,69,29.98,10.0,Calm,Calm,-,N/A,,Clear,0,2012-09-02 03:35:00
10:55 PM,75.7,65.8,71,29.99,10.0,Calm,Calm,-,N/A,,Clear,0,2012-09-02 03:55:00
11:15 PM,76.1,66.0,71,29.99,10.0,Calm,Calm,-,N/A,,Clear,0,2012-09-02 04:15:00
11:35 PM,74.7,66.2,75,29.99,10.0,Calm,Calm,-,N/A,,Clear,0,2012-09-02 04:35:00
11:55 PM,73.9,66.4,77,29.99,10.0,Calm,Calm,-,N/A,,Clear,0,2012-09-02 04:55:00